map of KBP home
KBP - Airport
Location
City:  Kiev, Kiev, Ukraine
Near (Alt.):Kyiv
Name:Boryspil International Airport
Old (Alt.):Borispol International Airport
ICAO:UKBB
IATA:KBP

Details
Type:Airport (Aerodrome, Airfield)
Use:Public/Civil, International (customs port of entry)
Latitude:5020'42"N (50.345000)
Longitude:3053'41"E (30.894722)
Datum:WGS 1984
Elevation:427 ft (130 m)
Variation:7.68E (WMM2015 magnetic declination)
0.12 annual change
Runways:2
Longest:13123 × 197 ft (4000 × 60 m), paved

Time
Time Zone:UTC+2 (DST+3)
Local Time:

Weather
METAR:UKBB 230000Z 01006MPS 9999 OVC003 M10/M10 Q1021 R88/811045 NOSIG

Related Locations
Nearby:
Farthest:CHT: 11080 mi / 17832 km
Waitangi [Tuuta], CIT, NZ

Find:

   beyond  
but within

Other Information
Maps:
NOTAMs:
Links:
Sources:

  
flag of Ukraine
flag of Kiev
flag of Kiev
  

Sectional Chart

Flight Planning
at skyvector.com

Satellite Image

Google Maps Satellite view

 

Copyright © 2004-2018 Karl L. Swartz. All rights reserved.
The Great Circle Mapper name and logo are trademarks of the Great Circle Mapper.
All other trademarks mentioned herein belong to their respective owners.
Please see credits for attibutions and further copyright information.

  Follow gcmap on Facebook Follow gcmap on Twitter Follow gcmap on Google+ GCmap on LinkedIn

hCard Microformat

Geo Microformat